Location: Wilhelmshaven
(53.5279°N, 8.1063°E)
Time: 21:42:12
(UTC+02:00)

ISS - Pass Details

Date: 07 July 2022
Orbit: 412 x 420 km, 51.6° (Epoch: 19 August)

Event Time Altitude Azimuth Distance (km) Brightness Sun altitude
Exits shadow 03:16:20 10° 245° (WSW) 1,474 -1.4 -10.6°
Maximum altitude 03:19:33 53° 168° (SSE) 524 -3.6 -10.4°
Drops below altitude 10° 03:22:51 10° 90° (E) 1,505 -0.6 -10.2°
Sets 03:24:59 0° 86° (E) 2,372 0.5 -10.1°
